�������l�o���
Date,Time,MP-1(��Sv/h),MP-2(��Sv/h),MP-3(��Sv/h),MP-4(��Sv/h),MP-5(��Sv/h),MP-6(��Sv/h),MP-7(��Sv/h),MP-8(��Sv/h),����,����(m/s),���J
2021/11/18,00:00,0.589,0.885,0.561,1.088,0.761,0.354,0.619,0.582,��쐼,3.7,��
2021/11/18,00:10,0.588,0.885,0.560,1.088,0.761,0.356,0.620,0.583,�쐼,4.4,��
2021/11/18,00:20,0.587,0.884,0.559,1.086,0.761,0.356,0.620,0.584,�쐼,4.6,��
2021/11/18,00:30,0.589,0.887,0.561,1.086,0.761,0.355,0.620,0.583,�쐼,4.4,��
2021/11/18,00:40,0.587,0.884,0.560,1.087,0.761,0.358,0.618,0.583,�쐼,4.4,��
2021/11/18,00:50,0.587,0.885,0.560,1.087,0.759,0.357,0.620,0.583,�쐼,4.4,��
2021/11/18,01:00,0.589,0.885,0.562,1.087,0.760,0.356,0.620,0.582,�쐼,4.0,��
2021/11/18,01:10,0.586,0.884,0.559,1.087,0.760,0.357,0.621,0.583,�쐼,4.0,��
2021/11/18,01:20,0.587,0.885,0.560,1.087,0.761,0.357,0.619,0.583,��쐼,3.8,��
2021/11/18,01:30,0.587,0.886,0.560,1.087,0.760,0.357,0.619,0.584,��쐼,4.0,��
2021/11/18,01:40,0.587,0.884,0.560,1.086,0.761,0.358,0.618,0.584,��쐼,3.4,��
2021/11/18,01:50,0.588,0.882,0.562,1.087,0.761,0.357,0.620,0.583,��쐼,3.5,��
2021/11/18,02:00,0.586,0.882,0.560,1.088,0.761,0.356,0.618,0.584,��쐼,3.4,��
2021/11/18,02:10,0.587,0.885,0.559,1.086,0.760,0.357,0.619,0.583,��쐼,3.5,��
2021/11/18,02:20,0.587,0.886,0.559,1.088,0.761,0.357,0.620,0.583,��쐼,2.8,��
2021/11/18,02:30,0.589,0.885,0.561,1.088,0.761,0.358,0.620,0.583,��쐼,2.5,��
2021/11/18,02:40,0.587,0.883,0.560,1.089,0.762,0.356,0.619,0.583,�쐼,2.9,��
2021/11/18,02:50,0.588,0.883,0.560,1.086,0.760,0.357,0.618,0.582,��쐼,2.5,��
2021/11/18,03:00,0.588,0.885,0.561,1.086,0.760,0.357,0.620,0.583,��쐼,3.3,��
2021/11/18,03:10,0.589,0.887,0.562,1.086,0.760,0.356,0.619,0.584,��쐼,3.4,��
2021/11/18,03:20,0.586,0.885,0.559,1.087,0.759,0.355,0.618,0.583,��쐼,3.2,��
2021/11/18,03:30,0.588,0.884,0.558,1.087,0.760,0.357,0.619,0.584,��,3.3,��
2021/11/18,03:40,0.587,0.885,0.560,1.085,0.760,0.356,0.619,0.583,��,2.6,��
2021/11/18,03:50,0.589,0.886,0.561,1.088,0.760,0.357,0.620,0.584,��쓌,2.3,��
2021/11/18,04:00,0.586,0.885,0.561,1.088,0.761,0.358,0.619,0.584,��,1.2,��
2021/11/18,04:10,0.586,0.882,0.560,1.088,0.760,0.356,0.619,0.583,��쐼,0.9,��
2021/11/18,04:20,0.587,0.883,0.558,1.088,0.762,0.356,0.620,0.583,�쐼,1.5,��
2021/11/18,04:30,0.587,0.882,0.560,1.089,0.760,0.356,0.619,0.582,��,1.1,��
2021/11/18,04:40,0.587,0.886,0.561,1.085,0.762,0.356,0.619,0.584,��,0.9,��
2021/11/18,04:50,0.587,0.885,0.561,1.087,0.762,0.357,0.618,0.582,�쐼,1.5,��
2021/11/18,05:00,0.586,0.883,0.559,1.087,0.760,0.357,0.618,0.583,�쐼,1.9,��
2021/11/18,05:10,0.586,0.887,0.560,1.087,0.758,0.358,0.619,0.583,�쐼,2.0,��
2021/11/18,05:20,0.588,0.884,0.560,1.088,0.760,0.357,0.619,0.585,�쐼,1.5,��
2021/11/18,05:30,0.588,0.886,0.560,1.087,0.761,0.356,0.618,0.585,�쐼,1.4,��
2021/11/18,05:40,0.585,0.885,0.560,1.088,0.760,0.357,0.620,0.584,�쐼,1.9,��
2021/11/18,05:50,0.586,0.885,0.560,1.086,0.760,0.356,0.618,0.583,���쐼,2.3,��
2021/11/18,06:00,0.587,0.884,0.560,1.086,0.759,0.357,0.618,0.583,�쐼,2.0,��
2021/11/18,06:10,0.588,0.884,0.561,1.087,0.762,0.357,0.621,0.583,�쐼,1.5,��
2021/11/18,06:20,0.586,0.885,0.559,1.088,0.760,0.356,0.620,0.583,��쐼,0.9,��
2021/11/18,06:30,0.586,0.883,0.560,1.087,0.760,0.356,0.620,0.584,-,CALM,��
2021/11/18,06:40,0.586,0.886,0.560,1.091,0.761,0.356,0.620,0.584,��,0.6,��
2021/11/18,06:50,0.588,0.885,0.559,1.085,0.759,0.356,0.618,0.582,-,CALM,��
2021/11/18,07:00,0.586,0.885,0.562,1.088,0.760,0.356,0.621,0.584,-,CALM,��
2021/11/18,07:10,0.587,0.885,0.561,1.089,0.760,0.358,0.620,0.583,��쐼,0.6,��
2021/11/18,07:20,0.588,0.887,0.559,1.087,0.760,0.357,0.619,0.582,��,1.2,��
2021/11/18,07:30,0.587,0.884,0.559,1.088,0.761,0.356,0.619,0.584,��쐼,1.5,��
2021/11/18,07:40,0.588,0.884,0.560,1.086,0.761,0.357,0.621,0.584,��,2.3,��
2021/11/18,07:50,0.588,0.883,0.561,1.087,0.760,0.357,0.619,0.584,��쐼,0.9,��
2021/11/18,08:00,0.589,0.886,0.560,1.089,0.760,0.357,0.621,0.583,��,0.9,��
2021/11/18,08:10,0.589,0.885,0.561,1.087,0.758,0.358,0.621,0.585,��,1.1,��
2021/11/18,08:20,0.589,0.885,0.571,1.087,0.760,0.358,0.622,0.584,�쐼,1.5,��
2021/11/18,08:30,0.589,0.884,0.560,1.087,0.761,0.357,0.622,0.583,��쐼,3.2,��
2021/11/18,08:40,0.590,0.887,0.561,1.088,0.760,0.357,0.619,0.584,��쐼,2.8,��
2021/11/18,08:50,0.590,0.884,0.561,1.087,0.762,0.357,0.622,0.586,��,2.9,��
2021/11/18,09:00,0.591,0.885,0.562,1.087,0.762,0.357,0.620,0.584,��,3.9,��
2021/11/18,09:10,0.590,0.886,0.563,1.087,0.762,0.358,0.620,0.584,��,4.1,��
2021/11/18,09:20,0.589,0.884,0.561,1.087,0.761,0.356,0.619,0.586,��쓌,4.9,��
2021/11/18,09:30,0.590,0.883,0.563,1.091,0.763,0.357,0.619,0.585,��쓌,5.2,��
2021/11/18,09:40,0.591,0.882,0.560,1.086,0.761,0.357,0.619,0.585,��쓌,5.5,��
2021/11/18,09:50,0.590,0.881,0.561,1.089,0.761,0.357,0.620,0.583,��쓌,4.3,��
2021/11/18,10:00,0.590,0.883,0.560,1.088,0.762,0.357,0.618,0.584,��쓌,5.6,��
2021/11/18,10:10,0.590,0.882,0.563,1.089,0.758,0.356,0.619,0.585,��쓌,5.2,��
2021/11/18,10:20,0.589,0.883,0.561,1.089,0.759,0.356,0.620,0.585,��쓌,6.1,��
2021/11/18,10:30,0.589,0.885,0.562,1.089,0.761,0.357,-,0.585,��쓌,7.0,��
2021/11/18,10:40,0.590,0.884,0.560,1.089,0.760,0.355,-,0.584,��쓌,7.3,��
2021/11/18,10:50,0.589,0.883,0.560,1.090,0.760,0.355,-,0.584,��쓌,7.5,��
2021/11/18,11:00,0.589,0.885,0.561,1.089,0.760,0.356,-,0.585,��쓌,7.8,��
2021/11/18,11:10,0.589,0.883,0.561,1.088,0.760,0.356,-,0.586,��쓌,8.4,��
2021/11/18,11:20,0.591,0.884,0.562,1.089,0.760,0.356,-,0.584,��쓌,8.7,��
2021/11/18,11:30,0.590,0.886,0.559,1.091,0.761,0.355,-,0.585,��쓌,9.7,��
2021/11/18,11:40,0.589,0.884,0.561,1.089,0.760,0.356,-,0.584,��쓌,9.6,��
2021/11/18,11:50,0.590,0.885,0.559,1.091,0.761,0.356,-,0.584,��쓌,8.7,��
2021/11/18,12:00,0.591,0.886,0.561,1.090,0.762,0.357,-,0.583,��쓌,8.0,��
2021/11/18,12:10,0.590,0.885,0.562,1.088,0.760,0.357,-,0.584,��쓌,8.6,��
2021/11/18,12:20,0.589,0.888,0.560,1.089,0.761,0.357,-,0.583,��쓌,8.3,��
2021/11/18,12:30,0.590,0.885,0.561,1.090,0.762,0.358,-,0.583,��쓌,8.6,��
2021/11/18,12:40,0.590,0.886,0.560,1.092,0.762,0.358,-,0.581,��,8.7,��
2021/11/18,12:50,0.591,0.886,0.561,1.091,0.762,0.358,-,0.582,��쓌,8.9,��
2021/11/18,13:00,0.589,0.885,0.560,1.090,0.760,0.358,-,0.582,��쓌,8.0,��
2021/11/18,13:10,0.589,0.883,0.562,1.090,0.762,0.358,-,0.582,��쓌,8.3,��
2021/11/18,13:20,0.588,0.883,0.561,1.090,0.762,0.357,-,0.581,��쓌,8.3,��
2021/11/18,13:30,0.590,0.884,0.563,1.091,0.763,0.358,-,0.582,��쓌,8.5,��
2021/11/18,13:40,0.590,0.886,0.562,1.091,0.761,0.360,-,0.583,��쓌,8.4,��
2021/11/18,13:50,0.589,0.882,0.562,1.090,0.761,0.359,-,0.584,��,8.6,��
2021/11/18,14:00,0.590,0.884,0.563,1.090,0.759,0.358,-,0.581,��쓌,9.0,��
2021/11/18,14:10,0.590,0.886,0.563,1.094,0.761,0.358,-,0.581,��쓌,8.6,��
2021/11/18,14:20,0.590,0.884,0.563,1.092,0.760,0.357,-,0.582,��쓌,7.6,��
2021/11/18,14:30,0.591,0.887,0.564,1.090,0.762,0.360,0.618,0.582,��쓌,7.5,��
2021/11/18,14:40,0.591,0.887,0.563,1.091,0.763,0.359,0.619,0.582,��쓌,8.2,��
2021/11/18,14:50,0.591,0.884,0.564,1.093,0.761,0.361,0.621,0.584,��쓌,6.8,��
2021/11/18,15:00,0.591,0.884,0.564,1.092,0.761,0.361,0.621,0.584,��쓌,7.5,��
2021/11/18,15:10,0.590,0.885,0.562,1.089,0.761,0.360,0.620,0.585,��쓌,7.1,��
2021/11/18,15:20,0.591,0.888,0.564,1.089,0.760,0.360,0.620,0.583,��,7.0,��
2021/11/18,15:30,0.589,0.887,0.562,1.091,0.762,0.360,0.621,0.584,��쓌,6.9,��
2021/11/18,15:40,0.588,0.889,0.561,1.090,0.763,0.360,0.622,0.585,��,6.8,��
2021/11/18,15:50,0.591,0.890,0.565,1.090,0.762,0.359,0.621,0.584,��,8.1,��
2021/11/18,16:00,0.589,0.889,0.564,1.089,0.762,0.360,0.623,0.585,��,7.2,��
2021/11/18,16:10,0.591,0.889,0.564,1.088,0.762,0.360,0.623,0.587,��,7.0,��
2021/11/18,16:20,0.591,0.891,0.563,1.090,0.762,0.359,0.622,0.585,��,6.9,��
2021/11/18,16:30,0.592,0.889,0.563,1.089,0.764,0.360,0.622,0.585,��,7.0,��
2021/11/18,16:40,0.592,0.888,0.563,1.090,0.762,0.360,0.623,0.586,��,6.6,��
2021/11/18,16:50,0.593,0.889,0.562,1.091,0.764,0.361,0.624,0.585,��,5.6,��
2021/11/18,17:00,0.592,0.889,0.563,1.091,0.764,0.359,0.622,0.585,��쐼,5.9,��
2021/11/18,17:10,0.593,0.891,0.563,1.089,0.764,0.358,0.623,0.585,��,6.9,��
2021/11/18,17:20,0.591,0.890,0.562,1.091,0.764,0.359,0.623,0.585,��,5.6,��
2021/11/18,17:30,0.592,0.891,0.564,1.089,0.763,0.359,0.622,0.584,��쐼,4.0,��
2021/11/18,17:40,0.593,0.890,0.563,1.089,0.763,0.360,0.622,0.585,��,6.7,��
2021/11/18,17:50,0.593,0.888,0.563,1.091,0.763,0.359,0.621,0.585,��,5.2,��
2021/11/18,18:00,0.591,0.890,0.563,1.090,0.764,0.360,0.621,0.584,��쐼,4.7,��
2021/11/18,18:10,0.591,0.888,0.564,1.090,0.763,0.358,0.621,0.585,��쐼,4.6,��
2021/11/18,18:20,0.592,0.892,0.563,1.091,0.765,0.359,0.621,0.584,��쐼,3.9,��
2021/11/18,18:30,0.592,0.888,0.563,1.091,0.764,0.359,0.621,0.584,�쐼,3.9,��
2021/11/18,18:40,0.592,0.890,0.562,1.090,0.764,0.358,0.623,0.583,�쐼,4.3,��
2021/11/18,18:50,0.590,0.888,0.562,1.089,0.763,0.359,0.622,0.584,�쐼,4.6,��
2021/11/18,19:00,0.591,0.888,0.562,1.090,0.764,0.359,0.622,0.587,�쐼,3.1,��
2021/11/18,19:10,0.592,0.890,0.562,1.091,0.764,0.358,0.623,0.584,�쐼,1.7,��
2021/11/18,19:20,0.591,0.889,0.562,1.091,0.763,0.358,0.622,0.586,��쐼,1.9,��
2021/11/18,19:30,0.591,0.889,0.563,1.089,0.763,0.358,0.622,0.585,��쐼,2.6,��
2021/11/18,19:40,0.591,0.889,0.561,1.089,0.762,0.357,0.623,0.585,��쐼,3.1,��
2021/11/18,19:50,0.592,0.888,0.563,1.088,0.763,0.358,0.621,0.584,��쐼,4.3,��
2021/11/18,20:00,0.592,0.888,0.563,1.090,0.763,0.359,0.622,0.584,��쐼,4.8,��
2021/11/18,20:10,0.590,0.886,0.562,1.092,0.763,0.358,0.620,0.584,�쐼,5.0,��
2021/11/18,20:20,0.590,0.889,0.562,1.090,0.763,0.358,0.620,0.583,��쐼,4.2,��
2021/11/18,20:30,0.591,0.888,0.561,1.087,0.762,0.359,0.620,0.583,��쐼,3.6,��
2021/11/18,20:40,0.590,0.887,0.562,1.090,0.763,0.358,0.622,0.583,��쐼,2.6,��
2021/11/18,20:50,0.591,0.888,0.561,1.090,0.763,0.358,0.622,0.585,��쐼,2.9,��
2021/11/18,21:00,0.592,0.890,0.562,1.090,0.762,0.359,0.621,0.584,��쐼,3.1,��
2021/11/18,21:10,0.591,0.889,0.561,1.091,0.763,0.360,0.622,0.584,��쐼,3.9,��
2021/11/18,21:20,0.592,0.887,0.564,1.089,0.764,0.358,0.620,0.583,�쐼,2.6,��
2021/11/18,21:30,0.590,0.888,0.563,1.089,0.764,0.356,0.622,0.584,�쐼,2.3,��
2021/11/18,21:40,0.590,0.887,0.560,1.092,0.764,0.358,0.621,0.583,���쐼,2.6,��
2021/11/18,21:50,0.590,0.887,0.562,1.090,0.764,0.359,0.621,0.583,���쐼,4.0,��
2021/11/18,22:00,0.591,0.888,0.561,1.091,0.765,0.358,0.621,0.584,���쐼,5.0,��
2021/11/18,22:10,0.590,0.885,0.561,1.090,0.763,0.358,0.620,0.584,���쐼,5.8,��
2021/11/18,22:20,0.591,0.890,0.562,1.091,0.764,0.357,0.621,0.583,��,4.8,��
2021/11/18,22:30,0.591,0.886,0.563,1.089,0.764,0.359,0.621,0.584,���쐼,5.1,��
2021/11/18,22:40,0.592,0.888,0.561,1.090,0.761,0.357,0.622,0.584,��,4.9,��
2021/11/18,22:50,0.592,0.887,0.561,1.087,0.762,0.360,0.620,0.583,��,5.5,��
2021/11/18,23:00,0.591,0.888,0.561,1.088,0.762,0.358,0.620,0.584,��,5.3,��
2021/11/18,23:10,0.590,0.888,0.560,1.090,0.763,0.358,0.622,0.584,��,5.7,��
2021/11/18,23:20,0.590,0.887,0.562,1.089,0.762,0.358,0.621,0.584,��,5.8,��
2021/11/18,23:30,0.592,0.887,0.563,1.090,0.762,0.358,0.623,0.584,��,5.8,��
2021/11/18,23:40,0.590,0.887,0.561,1.090,0.764,0.358,0.621,0.585,��,5.9,��
2021/11/18,23:50,0.590,0.889,0.561,1.088,0.762,0.359,0.622,0.585,���쐼,4.3,��
